AirNav   TITAN Aviation Fuels
 
 1141 users online  

E25 Wickenburg Municipal Airport
Wickenburg, Arizona, USA

GOING TO WICKENBURG?


FAA INFORMATION EFFECTIVE 22 APRIL 2021

Location

FAA Identifier: E25
Lat/Long: 33-58-14.2656N 112-47-42.3233W
33-58.237760N 112-47.705388W
33.9706293,-112.7950898
(estimated)
Elevation: 2378.6 ft. / 725.0 m (surveyed)
Variation: 13E (1985)
From city: 3 miles W of WICKENBURG, AZ
Time zone: UTC -7 (year round; does not observe DST)
Zip code: 85390

Airport Operations

Airport use: Open to the public
Activation date: 05/1969
Control tower: no
ARTCC: ALBUQUERQUE CENTER
FSS: PRESCOTT FLIGHT SERVICE STATION
NOTAMs facility: PRC (NOTAM-D service available)
Attendance: TUE-SAT 0700-1600
AFTER HRS CTC (928) 232-0397
Wind indicator: lighted, LIGHTED INDICATORS INOPERATIVE.
Segmented circle: yes
Lights: ACTVT MIRL RY 05/23, REIL RY 05, REIL RY 23 AND TWY LGTS - CTAF. PAPI RYS 05 & 23 ON FROM DAWN-DUSK, ACTVT PAPI RYS 05 & 23 DUSK-DAWN - CTAF.
Beacon: white-green (lighted land airport)
Operates sunset to sunrise.

Airport Communications

CTAF/UNICOM: 123.0
WX AWOS-3: 121.375 (928-684-2487)

Nearby radio navigation aids

VOR radial/distance  VOR name  Freq  Var
BXKr349/31.1BUCKEYE VORTAC110.6014E

Airport Services

Fuel available: 100LL JET-A1+
SELF-FUELING AVAILABLE 24/7 WITH MAJOR CREDIT CARD. JET 'A' AVAILABLE WITH CALL-OUT OF $100 AFTER 1600 AND ON SUN & MON.
Parking: tiedowns
Airframe service: MINOR
Powerplant service: MINOR
Bulk oxygen: NONE

Runway Information

Runway 5/23

Dimensions: 6101 x 75 ft. / 1860 x 23 m
Surface: asphalt, in good condition
Weight bearing capacity: 
Single wheel: 30.0
Double wheel: 60.0
Runway edge lights: medium intensity
RUNWAY 5  RUNWAY 23
Latitude: 33-57.989590N33-58.485928N
Longitude: 112-48.230338W112-47.180438W
Elevation: 2378.4 ft.2307.3 ft.
Traffic pattern: leftright
Runway heading: 047 magnetic, 060 true227 magnetic, 240 true
Markings: nonprecision, in fair conditionnonprecision, in fair condition
Visual slope indicator: 4-light PAPI on left (3.00 degrees glide path)4-light PAPI on left (3.00 degrees glide path)
Runway end identifier lights: yesyes
Touchdown point: yes, no lightsyes, no lights
Obstructions: 3 ft. gnd, 201 ft. from runway, 100 ft. left of centerline
RY 05, 1 FT-3 FT BRUSH 40 FT-190 FT FM THRESHOLD, 40 FT L & R OF CNTRLN.
none
RY 05, 1 FT-3 FT BRUSH 0 FT-200 FT FM THRESHOLD, 50 FT - 70 FT R OF CNTRLN.

Airport Ownership and Management from official FAA records

Ownership: Publicly-owned
Owner: TOWN OF WICKENBURG
155 NORTH TEGNER ST SUITE A
WICKENBURG, AZ 85390
Phone 928-684-5451
AIRPORT CTC INFORMATION AVBL AT WWW.WICKENBURGAZ.ORG.
Manager: HERSCHEL WORKMAN
155 NORTH TEGNER ST SUITE A
WICKENBURG, AZ 85390
Phone (928) 232-0397

Airport Operational Statistics

Aircraft based on the field: 16
Single engine airplanes: 12
Multi engine airplanes: 1
Gliders airplanes: 1
Ultralights: 2
    
Aircraft operations: avg 99/day *
67% transient general aviation
32% local general aviation
1% air taxi
<1% military
* for 12-month period ending 25 April 2018

Additional Remarks

RWY 23 HAS 150 FT BLAST PAD.
RWY 05 HAS 150 FT BLAST PAD.
WILDLIFE ON OR INVOF ARPT.
NUMEROUS TWY LIGHTS INOP.
FOR CD CTC LUKE APCH AT 623-856-7361. IF UNA, CTC PHOENIX APCH AT 602-306-2565.

Instrument Procedures

There are no published instrument procedures at E25.

Some nearby airports with instrument procedures:

KLUF - Luke Air Force Base (33 nm SE)
KGEU - Glendale Municipal Airport (36 nm SE)
KGYR - Phoenix Goodyear Airport (39 nm SE)
KDVT - Phoenix Deer Valley Airport (39 nm SE)
KPRC - Prescott Regional Airport - Ernest A Love Field (45 nm NE)
 
Loc | Ops | Rwys | IFR | FBO | Links
Com | Nav | Svcs | Stats | Notes
Area around E25 (Wickenburg Municipal Airport)
 
Road maps at: MapQuest Bing Google
 
Aerial photo
WARNING: Photo may not be current or correct
Aerial photo of E25 (Wickenburg Municipal Airport)
Photo taken 31-Dec-2006

Do you have a better or more recent aerial photo of Wickenburg Municipal Airport that you would like to share? If so, please send us your photo.

 
Sectional chart

 
Airport distance calculator
Flying to Wickenburg Municipal Airport? Find the distance to fly.

From to E25

Sunrise and sunset
Times for 16-May-2021
 Local
(UTC-7)
 Zulu
(UTC)
Morning civil twilight05:0212:02
Sunrise05:3012:30
Sunset19:2502:25
Evening civil twilight19:5302:53

Current date and time
Zulu (UTC)  16-May-2021 22:35:32
Local (UTC-7)  16-May-2021 15:35:32
 
METAR
KBXK 
33nm S 
162215Z AUTO 21007KT 180V240 9SM 31/M04 A2978 RMK A01
KLUF 
35nm SE 
162158Z AUTO 22012G21KT 10SM FEW190 32/M02 A2976 RMK AO2 SLP066 T03161025 $
KGEU 
36nm SE 
162152Z 21012G20KT 10SM SKC 32/M01 A2979
KGYR 
40nm SE 
162147Z 24016G22KT 10SM SKC 32/00 A2977
KDVT 
40nm SE 
162153Z 26016G20KT 10SM CLR 31/M02 A2979 RMK AO2 SLP064 T03061017
KPRC 
45nm NE 
162153Z 23023G30KT 10SM CLR 22/M07 A2993 RMK AO2 PK WND 22030/2152 SLP070 T02171072
KSDL 
49nm SE 
162153Z 22010KT 170V240 10SM CLR 32/M02 A2980 RMK AO2 SLP067 T03171017
KPHX 
49nm SE 
162154Z 21011G15KT 10SM FEW120 33/M02 A2975 RMK AO2 T03331017 $
TAF
KDVT 
40nm SE 
162129Z 1621/1718 18010G20KT P6SM SKC FM162200 20010G20KT P6SM SKC FM170000 24015G25KT P6SM SKC FM170400 24009KT P6SM SKC FM170700 VRB05KT P6SM SKC FM171100 12005KT P6SM SKC
NOTAMs
Click for the latest NOTAMs
NOTAMs are issued by the DoD/FAA and will open in a separate window not controlled by AirNav.

 

 
 

FBO, Fuel Providers, and Aircraft Ground Support

  
 Business Name 
 
 Contact 
 
 Services / Description 
 
Fuel Prices
 
Comments
  
 Town of Wickenburg
928-684-0754
[web site]
[email]
Aviation fuel, Aircraft parking (ramp or tiedown), Hangar leasing / sales, Catering, Pilots lounge / snooze room, Computerized weather, Internet access, Restrooms
 
Face masks required  
 
More info about Town of Wickenburg
independent
100LL Jet A
FS --- $4.95 
SS $4.50 $4.95 
 Updated 14-Apr-2021
 
   1 read write
FS=Full service
SS=Self service
Update Fuel Prices
 

Would you like to see your business listed on this page?

 If your business provides an interesting product or service to pilots, flight crews, aircraft, or users of the Wickenburg Municipal Airport, you should consider listing it here.  To start the listing process, click on the button below
 
Add a business
 

Other Pages about Wickenburg Municipal Airport

www.wickenburgairport.com
 
Update a link
 
Copyright © AirNav, LLC. All rights reserved. Privacy Policy  Contact